軌道要素
Epoch 2021 July 5.0 TT = JDT 2459400.5
T 2021 July 5.25209 TT Rudenko
q 2.1918391 (2000.0) P Q
z -0.0000353 Peri. 79.60572 +0.03254603 -0.63907346
+/-0.0000030 Node 50.62021 -0.19932585 -0.75756924
e 1.0000773 Incl. 83.81406 +0.97939265 -0.13294344
From 174 observations 2020 Sept. 26-2021 June 17, mean residual 0".4.
|